Time,TemperatureF,DewpointF,PressureIn,WindDirection,WindDirectionDegrees,WindSpeedMPH,WindSpeedGustMPH,Humidity,HourlyPrecipIn,Conditions,Clouds,dailyrainin,SoftwareType,DateUTC
2013-06-24 00:01:00,72.9,69.0,29.97,WNW,287,2.0,4.0,86,0.00,,,0.00,weatherlink.com 1.10,2013-06-24 04:01:00,
2013-06-24 00:16:00,72.6,68.0,29.97,West,278,0.0,2.0,86,0.00,,,0.00,weatherlink.com 1.10,2013-06-24 04:16:00,
2013-06-24 00:31:00,70.6,68.0,29.96,NE,46,0.0,2.0,91,0.00,,,0.00,weatherlink.com 1.10,2013-06-24 04:31:00,
2013-06-24 00:46:00,69.9,68.0,29.96,NE,46,0.0,1.0,92,0.00,,,0.00,weatherlink.com 1.10,2013-06-24 04:46:00,
2013-06-24 01:01:00,69.7,68.0,29.96,NNE,16,0.0,4.0,93,0.00,,,0.00,weatherlink.com 1.10,2013-06-24 05:01:00,
2013-06-24 01:16:00,69.0,67.0,29.96,NNE,19,1.0,2.0,93,0.00,,,0.00,weatherlink.com 1.10,2013-06-24 05:16:00,
2013-06-24 01:31:00,68.5,67.0,29.96,NNE,25,0.0,1.0,94,0.00,,,0.00,weatherlink.com 1.10,2013-06-24 05:31:00,
2013-06-24 01:46:00,68.0,67.0,29.95,NNE,25,0.0,2.0,95,0.00,,,0.00,weatherlink.com 1.10,2013-06-24 05:46:00,
2013-06-24 02:01:00,67.7,67.0,29.95,ESE,110,1.0,2.0,96,0.00,,,0.00,weatherlink.com 1.10,2013-06-24 06:01:00,
2013-06-24 02:16:00,68.8,67.0,29.96,ESE,105,2.0,2.0,94,0.00,,,0.00,weatherlink.com 1.10,2013-06-24 06:16:00,
2013-06-24 02:31:00,68.8,67.0,29.95,East,95,2.0,3.0,94,0.00,,,0.00,weatherlink.com 1.10,2013-06-24 06:31:00,
2013-06-24 03:01:00,67.9,67.0,29.95,ENE,65,1.0,2.0,95,0.00,,,0.00,weatherlink.com 1.10,2013-06-24 07:01:00,
2013-06-24 03:16:00,67.5,66.0,29.95,NNE,31,0.0,2.0,95,0.00,,,0.00,weatherlink.com 1.10,2013-06-24 07:16:00,
2013-06-24 03:31:00,67.1,66.0,29.94,NNE,31,0.0,0.0,96,0.00,,,0.00,weatherlink.com 1.10,2013-06-24 07:31:00,
2013-06-24 03:47:00,66.7,66.0,29.94,NNE,32,0.0,2.0,96,0.00,,,0.00,weatherlink.com 1.10,2013-06-24 07:47:00,
2013-06-24 04:01:00,66.6,66.0,29.94,NW,320,0.0,1.0,97,0.00,,,0.00,weatherlink.com 1.10,2013-06-24 08:01:00,
2013-06-24 04:16:00,67.0,66.0,29.95,NNE,23,1.0,3.0,97,0.00,,,0.00,weatherlink.com 1.10,2013-06-24 08:16:00,
2013-06-24 04:31:00,66.5,65.0,29.94,SSE,158,0.0,1.0,96,0.00,,,0.00,weatherlink.com 1.10,2013-06-24 08:31:00,
2013-06-24 05:02:00,66.2,65.0,29.95,NNE,27,0.0,1.0,96,0.00,,,0.00,weatherlink.com 1.10,2013-06-24 09:02:00,
2013-06-24 05:17:00,65.9,65.0,29.95,NNE,27,0.0,1.0,97,0.00,,,0.00,weatherlink.com 1.10,2013-06-24 09:17:00,
2013-06-24 05:32:00,65.7,65.0,29.95,NE,53,1.0,2.0,97,0.00,,,0.00,weatherlink.com 1.10,2013-06-24 09:32:00,
2013-06-24 05:47:00,65.7,65.0,29.95,NNE,14,1.0,2.0,97,0.00,,,0.00,weatherlink.com 1.10,2013-06-24 09:47:00,
2013-06-24 06:02:00,66.3,66.0,29.95,North,8,0.0,1.0,97,0.00,,,0.00,weatherlink.com 1.10,2013-06-24 10:02:00,
2013-06-24 06:17:00,67.7,67.0,29.96,ESE,106,0.0,4.0,97,0.00,,,0.00,weatherlink.com 1.10,2013-06-24 10:17:00,
2013-06-24 06:32:00,69.5,68.0,29.95,WSW,247,1.0,1.0,93,0.00,,,0.00,weatherlink.com 1.10,2013-06-24 10:32:00,
2013-06-24 06:47:00,70.9,68.0,29.95,NE,41,1.0,2.0,90,0.00,,,0.00,weatherlink.com 1.10,2013-06-24 10:47:00,
2013-06-24 07:02:00,71.5,69.0,29.95,NNE,32,2.0,3.0,91,0.00,,,0.00,weatherlink.com 1.10,2013-06-24 11:02:00,
2013-06-24 07:17:00,74.2,69.0,29.95,West,264,0.0,5.0,84,0.00,,,0.00,weatherlink.com 1.10,2013-06-24 11:17:00,
2013-06-24 07:47:00,77.9,69.0,29.96,WNW,294,4.0,8.0,74,0.00,,,0.00,weatherlink.com 1.10,2013-06-24 11:47:00,
2013-06-24 08:32:00,77.2,71.0,29.96,SE,134,5.0,8.0,80,0.00,,,0.00,weatherlink.com 1.10,2013-06-24 12:32:00,
2013-06-24 08:47:00,78.3,71.0,29.95,ESE,111,3.0,6.0,79,0.00,,,0.00,weatherlink.com 1.10,2013-06-24 12:47:00,
2013-06-24 09:32:00,81.2,73.0,29.95,SE,130,3.0,8.0,76,0.00,,,0.00,weatherlink.com 1.10,2013-06-24 13:32:00,
2013-06-24 09:47:00,81.7,73.0,29.95,SE,139,3.0,9.0,75,0.00,,,0.00,weatherlink.com 1.10,2013-06-24 13:47:00,
2013-06-24 10:04:00,82.2,72.0,29.94,ESE,116,8.0,10.0,72,0.00,,,0.00,weatherlink.com 1.10,2013-06-24 14:04:00,
2013-06-24 10:17:00,81.7,73.0,29.94,ESE,120,4.0,14.0,74,0.00,,,0.00,weatherlink.com 1.10,2013-06-24 14:17:00,
2013-06-24 10:32:00,82.7,73.0,29.94,SSE,153,4.0,11.0,72,0.00,,,0.00,weatherlink.com 1.10,2013-06-24 14:32:00,
2013-06-24 10:47:00,83.7,73.0,29.94,ESE,102,4.0,12.0,71,0.00,,,0.00,weatherlink.com 1.10,2013-06-24 14:47:00,
2013-06-24 11:02:00,86.4,73.0,29.93,SE,129,3.0,6.0,64,0.00,,,0.00,weatherlink.com 1.10,2013-06-24 15:02:00,
2013-06-24 11:17:00,87.2,73.0,29.93,SSW,207,3.0,8.0,62,0.00,,,0.00,weatherlink.com 1.10,2013-06-24 15:17:00,
2013-06-24 11:32:00,88.5,72.0,29.92,SSE,168,2.0,11.0,59,0.00,,,0.00,weatherlink.com 1.10,2013-06-24 15:32:00,
2013-06-24 11:48:00,89.0,72.0,29.92,WSW,240,3.0,8.0,58,0.00,,,0.00,weatherlink.com 1.10,2013-06-24 15:48:00,
2013-06-24 12:33:00,91.1,72.0,29.91,West,260,7.0,7.0,54,0.00,,,0.00,weatherlink.com 1.10,2013-06-24 16:33:00,
2013-06-24 12:48:00,89.7,73.0,29.92,West,262,5.0,10.0,59,0.00,,,0.00,weatherlink.com 1.10,2013-06-24 16:48:00,
2013-06-24 13:03:00,90.5,72.0,29.91,NW,320,2.0,8.0,55,0.00,,,0.00,weatherlink.com 1.10,2013-06-24 17:03:00,
2013-06-24 13:18:00,90.0,71.0,29.91,West,280,2.0,12.0,54,0.00,,,0.00,weatherlink.com 1.10,2013-06-24 17:18:00,
2013-06-24 13:33:00,88.6,73.0,29.90,SSW,213,5.0,8.0,61,0.00,,,0.00,weatherlink.com 1.10,2013-06-24 17:33:00,
2013-06-24 13:48:00,88.7,73.0,29.91,WNW,290,3.0,10.0,59,0.00,,,0.00,weatherlink.com 1.10,2013-06-24 17:48:00,
2013-06-24 14:03:00,87.1,71.0,29.91,NW,314,8.0,8.0,60,0.00,,,0.00,weatherlink.com 1.10,2013-06-24 18:03:00,
2013-06-24 14:33:00,79.7,68.0,29.92,WNW,295,3.0,9.0,67,0.00,,,0.00,weatherlink.com 1.10,2013-06-24 18:33:00,
2013-06-24 14:48:00,77.9,69.0,29.92,NW,308,1.0,7.0,73,0.00,,,0.00,weatherlink.com 1.10,2013-06-24 18:48:00,
2013-06-24 15:18:00,75.4,70.0,29.92,SW,228,0.0,4.0,83,0.01,,,0.01,weatherlink.com 1.10,2013-06-24 19:18:00,
2013-06-24 15:33:00,74.4,71.0,29.91,East,82,0.0,2.0,89,0.02,,,0.02,weatherlink.com 1.10,2013-06-24 19:33:00,
2013-06-24 15:48:00,74.0,71.0,29.90,NE,51,2.0,5.0,90,0.03,,,0.03,weatherlink.com 1.10,2013-06-24 19:48:00,
2013-06-24 16:03:00,75.1,72.0,29.89,SSE,158,2.0,5.0,90,0.03,,,0.03,weatherlink.com 1.10,2013-06-24 20:03:00,
2013-06-24 16:18:00,76.9,71.0,29.88,NE,34,0.0,2.0,83,0.02,,,0.03,weatherlink.com 1.10,2013-06-24 20:18:00,
2013-06-24 16:33:00,79.3,73.0,29.87,NNW,328,0.0,3.0,81,0.01,,,0.03,weatherlink.com 1.10,2013-06-24 20:33:00,
2013-06-24 17:03:00,77.9,73.0,29.89,SE,139,3.0,4.0,84,0.00,,,0.03,weatherlink.com 1.10,2013-06-24 21:03:00,
2013-06-24 17:18:00,77.9,71.0,29.89,WSW,244,3.0,6.0,79,0.00,,,0.03,weatherlink.com 1.10,2013-06-24 21:18:00,
2013-06-24 17:33:00,78.4,73.0,29.89,West,271,1.0,4.0,82,0.00,,,0.03,weatherlink.com 1.10,2013-06-24 21:33:00,
2013-06-24 17:48:00,78.4,72.0,29.88,SSE,150,0.0,4.0,80,0.00,,,0.03,weatherlink.com 1.10,2013-06-24 21:48:00,
2013-06-24 18:03:00,78.5,71.0,29.88,West,273,1.0,3.0,78,0.00,,,0.03,weatherlink.com 1.10,2013-06-24 22:03:00,
2013-06-24 18:18:00,78.3,72.0,29.88,WNW,283,1.0,4.0,80,0.00,,,0.03,weatherlink.com 1.10,2013-06-24 22:18:00,
2013-06-24 19:03:00,78.4,72.0,29.87,WNW,290,2.0,6.0,81,0.00,,,0.03,weatherlink.com 1.10,2013-06-24 23:03:00,
2013-06-24 19:18:00,78.5,72.0,29.87,WSW,238,1.0,5.0,81,0.00,,,0.03,weatherlink.com 1.10,2013-06-24 23:18:00,
2013-06-24 19:33:00,77.9,71.0,29.88,SSE,166,1.0,5.0,80,0.00,,,0.03,weatherlink.com 1.10,2013-06-24 23:33:00,
2013-06-24 20:18:00,76.5,71.0,29.90,SSE,150,2.0,4.0,83,0.00,,,0.03,weatherlink.com 1.10,2013-06-25 00:18:00,
2013-06-24 20:33:00,75.8,71.0,29.90,SSW,195,0.0,3.0,84,0.00,,,0.03,weatherlink.com 1.10,2013-06-25 00:33:00,
2013-06-24 20:48:00,75.7,71.0,29.90,WSW,255,1.0,3.0,84,0.00,,,0.03,weatherlink.com 1.10,2013-06-25 00:48:00,
2013-06-24 21:03:00,74.7,70.0,29.89,SSE,153,1.0,5.0,86,0.00,,,0.03,weatherlink.com 1.10,2013-06-25 01:03:00,
2013-06-24 21:18:00,74.6,70.0,29.89,SSW,212,1.0,5.0,85,0.00,,,0.03,weatherlink.com 1.10,2013-06-25 01:18:00,
2013-06-24 21:33:00,74.6,70.0,29.90,SE,127,4.0,6.0,85,0.00,,,0.03,weatherlink.com 1.10,2013-06-25 01:33:00,
2013-06-24 21:48:00,74.0,70.0,29.90,SSE,149,0.0,3.0,86,0.00,,,0.03,weatherlink.com 1.10,2013-06-25 01:48:00,
2013-06-24 22:03:00,73.5,70.0,29.93,WNW,301,1.0,4.0,88,0.00,,,0.03,weatherlink.com 1.10,2013-06-25 02:03:00,
2013-06-24 22:18:00,73.7,70.0,29.93,East,94,0.0,2.0,88,0.00,,,0.03,weatherlink.com 1.10,2013-06-25 02:18:00,
2013-06-24 22:33:00,73.4,69.0,29.95,East,89,6.0,15.0,85,0.00,,,0.03,weatherlink.com 1.10,2013-06-25 02:33:00,
2013-06-24 22:48:00,72.9,68.0,29.94,SE,124,5.0,7.0,85,0.00,,,0.03,weatherlink.com 1.10,2013-06-25 02:48:00,
2013-06-24 23:03:00,72.3,68.0,29.94,West,273,1.0,3.0,87,0.02,,,0.05,weatherlink.com 1.10,2013-06-25 03:03:00,
2013-06-24 23:18:00,70.8,68.0,29.93,ENE,77,2.0,3.0,92,0.08,,,0.11,weatherlink.com 1.10,2013-06-25 03:18:00,
2013-06-24 23:33:00,69.9,68.0,29.93,SSW,210,1.0,1.0,94,0.08,,,0.11,weatherlink.com 1.10,2013-06-25 03:33:00,
2013-06-24 23:48:00,69.4,68.0,29.93,NNE,24,1.0,1.0,94,0.08,,,0.11,weatherlink.com 1.10,2013-06-25 03:48:00,